Time,TemperatureF,DewpointF,PressureIn,WindDirection,WindDirectionDegrees,WindSpeedMPH,WindSpeedGustMPH,Humidity,HourlyPrecipIn,Conditions,Clouds,dailyrainin,SoftwareType,DateUTC
2013-04-07 00:02:00,46.0,-99.9,29.81,ESE,120,4.0,10.0,-999,-99.99,,,-99.99,,2013-04-07 07:02:00,
2013-04-07 00:12:00,46.0,-99.9,29.80,ESE,106,7.0,10.0,-999,-99.99,,,-99.99,,2013-04-07 07:12:00,
2013-04-07 00:22:00,46.0,-99.9,29.80,ESE,110,5.0,9.0,-999,-99.99,,,-99.99,,2013-04-07 07:22:00,
2013-04-07 00:33:00,46.0,-99.9,29.79,ESE,103,6.0,9.0,-999,-99.99,,,-99.99,,2013-04-07 07:33:00,
2013-04-07 00:42:00,46.0,-99.9,29.77,ESE,109,4.0,7.0,-999,-99.99,,,-99.99,,2013-04-07 07:42:00,
2013-04-07 00:52:00,46.0,-99.9,29.76,ESE,112,4.0,8.0,-999,-99.99,,,-99.99,,2013-04-07 07:52:00,
2013-04-07 01:02:00,46.0,-99.9,29.75,East,86,5.0,8.0,-999,-99.99,,,-99.99,,2013-04-07 08:02:00,
2013-04-07 01:13:00,46.0,-99.9,29.74,East,91,4.0,8.0,-999,-99.99,,,-99.99,,2013-04-07 08:13:00,
2013-04-07 01:23:00,46.0,-99.9,29.73,East,91,3.0,6.0,-999,-99.99,,,-99.99,,2013-04-07 08:23:00,
2013-04-07 01:33:00,46.0,-99.9,29.71,ENE,69,2.0,5.0,-999,-99.99,,,-99.99,,2013-04-07 08:33:00,
2013-04-07 01:43:00,46.0,-99.9,29.70,NE,39,0.0,2.0,-999,-99.99,,,-99.99,,2013-04-07 08:43:00,
2013-04-07 01:53:00,46.0,-99.9,29.69,SE,135,1.0,2.0,-999,-99.99,,,-99.99,,2013-04-07 08:53:00,
2013-04-07 02:02:00,46.0,-99.9,29.68,East,80,4.0,7.0,-999,-99.99,,,-99.99,,2013-04-07 09:02:00,
2013-04-07 02:13:00,46.0,-99.9,29.68,ESE,102,3.0,6.0,-999,-99.99,,,-99.99,,2013-04-07 09:13:00,
2013-04-07 02:23:00,46.0,-99.9,29.67,SE,125,3.0,4.0,-999,-99.99,,,-99.99,,2013-04-07 09:23:00,
2013-04-07 02:34:00,45.0,-99.9,29.66,SE,125,4.0,6.0,-999,-99.99,,,-99.99,,2013-04-07 09:34:00,
2013-04-07 02:46:00,45.0,-99.9,29.65,ESE,118,2.0,6.0,-999,-99.99,,,-99.99,,2013-04-07 09:46:00,
2013-04-07 02:54:00,45.0,-99.9,29.64,SE,137,4.0,6.0,-999,-99.99,,,-99.99,,2013-04-07 09:54:00,
2013-04-07 03:05:00,45.0,-99.9,29.63,East,101,-999.0,3.0,-999,-99.99,,,-99.99,,2013-04-07 10:05:00,
2013-04-07 03:14:00,45.0,-99.9,29.62,SE,139,1.0,2.0,-999,-99.99,,,-99.99,,2013-04-07 10:14:00,
2013-04-07 03:23:00,45.0,-99.9,29.61,NNW,347,3.0,4.0,-999,-99.99,,,-99.99,,2013-04-07 10:23:00,
2013-04-07 03:34:00,45.0,-99.9,29.60,North,10,4.0,7.0,-999,-99.99,,,-99.99,,2013-04-07 10:34:00,
2013-04-07 03:44:00,45.0,-99.9,29.59,North,1,6.0,9.0,-999,-99.99,,,-99.99,,2013-04-07 10:44:00,
2013-04-07 03:54:00,45.0,-99.9,29.58,NNW,348,5.0,8.0,-999,-99.99,,,-99.99,,2013-04-07 10:54:00,
2013-04-07 04:03:00,45.0,-99.9,29.58,NNW,337,7.0,10.0,-999,-99.99,,,-99.99,,2013-04-07 11:03:00,
2013-04-07 04:13:00,45.0,-99.9,29.57,North,351,7.0,12.0,-999,-99.99,,,-99.99,,2013-04-07 11:13:00,
2013-04-07 04:23:00,45.0,-99.9,29.57,NNW,333,3.0,7.0,-999,-99.99,,,-99.99,,2013-04-07 11:23:00,
2013-04-07 04:33:00,44.0,-99.9,29.56,North,354,5.0,7.0,-999,-99.99,,,-99.99,,2013-04-07 11:33:00,
2013-04-07 04:43:00,44.0,-99.9,29.55,NNW,341,5.0,10.0,-999,-99.99,,,-99.99,,2013-04-07 11:43:00,
2013-04-07 04:53:00,44.0,-99.9,29.55,NNW,335,7.0,10.0,-999,-99.99,,,-99.99,,2013-04-07 11:53:00,
2013-04-07 05:03:00,44.0,-99.9,29.54,North,5,3.0,8.0,-999,-99.99,,,-99.99,,2013-04-07 12:03:00,
2013-04-07 05:13:00,44.0,-99.9,29.53,NNW,334,7.0,10.0,-999,-99.99,,,-99.99,,2013-04-07 12:13:00,
2013-04-07 05:23:00,44.0,-99.9,29.53,NNW,348,4.0,10.0,-999,-99.99,,,-99.99,,2013-04-07 12:23:00,
2013-04-07 05:35:00,44.0,-99.9,29.52,NNW,327,6.0,12.0,-999,-99.99,,,-99.99,,2013-04-07 12:35:00,
2013-04-07 05:43:00,43.0,-99.9,29.52,North,349,7.0,11.0,-999,-99.99,,,-99.99,,2013-04-07 12:43:00,
2013-04-07 05:54:00,43.0,-99.9,29.52,NNW,335,10.0,13.0,-999,-99.99,,,-99.99,,2013-04-07 12:54:00,
2013-04-07 06:05:00,43.0,-99.9,29.52,NNW,336,8.0,11.0,-999,-99.99,,,-99.99,,2013-04-07 13:05:00,
2013-04-07 06:13:00,42.0,-99.9,29.52,NNW,336,9.0,17.0,-999,-99.99,,,-99.99,,2013-04-07 13:13:00,
2013-04-07 06:23:00,42.0,-99.9,29.52,NNW,336,4.0,13.0,-999,-99.99,,,-99.99,,2013-04-07 13:23:00,
2013-04-07 06:33:00,42.0,-99.9,29.52,North,353,9.0,15.0,-999,-99.99,,,-99.99,,2013-04-07 13:33:00,
2013-04-07 06:43:00,42.0,-99.9,29.53,NNW,328,9.0,12.0,-999,-99.99,,,-99.99,,2013-04-07 13:43:00,
2013-04-07 06:53:00,41.0,-99.9,29.53,NNW,328,11.0,17.0,-999,-99.99,,,-99.99,,2013-04-07 13:53:00,
2013-04-07 07:03:00,42.0,-99.9,29.53,NW,322,12.0,15.0,-999,-99.99,,,-99.99,,2013-04-07 14:03:00,
2013-04-07 07:13:00,41.0,-99.9,29.54,NNW,337,11.0,15.0,-999,-99.99,,,-99.99,,2013-04-07 14:13:00,
2013-04-07 07:23:00,41.0,-99.9,29.54,NW,326,11.0,13.0,-999,-99.99,,,-99.99,,2013-04-07 14:23:00,
2013-04-07 07:33:00,41.0,-99.9,29.55,NNW,332,5.0,13.0,-999,-99.99,,,-99.99,,2013-04-07 14:33:00,
2013-04-07 07:45:00,41.0,-99.9,29.56,NW,326,6.0,9.0,-999,-99.99,,,-99.99,,2013-04-07 14:45:00,
2013-04-07 07:55:00,41.0,-99.9,29.56,NNW,329,5.0,8.0,-999,-99.99,,,-99.99,,2013-04-07 14:55:00,
2013-04-07 08:13:00,42.0,-99.9,29.58,North,359,0.0,6.0,-999,-99.99,,,-99.99,,2013-04-07 15:13:00,
2013-04-07 08:23:00,43.0,-99.9,29.58,NNW,333,2.0,5.0,-999,-99.99,,,-99.99,,2013-04-07 15:23:00,
2013-04-07 08:35:00,43.0,-99.9,29.60,NW,318,12.0,15.0,-999,-99.99,,,-99.99,,2013-04-07 15:35:00,
2013-04-07 08:45:00,43.0,-99.9,29.60,NW,317,12.0,15.0,-999,-99.99,,,-99.99,,2013-04-07 15:45:00,
2013-04-07 08:55:00,43.0,-99.9,29.61,NW,318,14.0,17.0,-999,-99.99,,,-99.99,,2013-04-07 15:55:00,
2013-04-07 09:05:00,43.0,-99.9,29.62,NW,314,8.0,15.0,-999,-99.99,,,-99.99,,2013-04-07 16:05:00,
2013-04-07 09:14:00,43.0,-99.9,29.63,NW,314,11.0,15.0,-999,-99.99,,,-99.99,,2013-04-07 16:14:00,
2013-04-07 09:25:00,43.0,-99.9,29.64,NW,315,11.0,15.0,-999,-99.99,,,-99.99,,2013-04-07 16:25:00,
2013-04-07 09:34:00,43.0,-99.9,29.65,NW,313,12.0,14.0,-999,-99.99,,,-99.99,,2013-04-07 16:34:00,
2013-04-07 09:44:00,43.0,-99.9,29.65,NW,315,11.0,14.0,-999,-99.99,,,-99.99,,2013-04-07 16:44:00,
2013-04-07 09:54:00,44.0,-99.9,29.66,NW,321,6.0,11.0,-999,-99.99,,,-99.99,,2013-04-07 16:54:00,
2013-04-07 10:05:00,43.0,-99.9,29.67,West,278,8.0,10.0,-999,-99.99,,,-99.99,,2013-04-07 17:05:00,
2013-04-07 10:14:00,43.0,-99.9,29.67,WSW,246,5.0,7.0,-999,-99.99,,,-99.99,,2013-04-07 17:14:00,
2013-04-07 10:24:00,43.0,-99.9,29.67,SSW,213,5.0,6.0,-999,-99.99,,,-99.99,,2013-04-07 17:24:00,
2013-04-07 10:44:00,43.0,-99.9,29.68,SW,214,11.0,11.0,-999,-99.99,,,-99.99,,2013-04-07 17:44:00,
2013-04-07 10:54:00,43.0,-99.9,29.69,SSW,203,9.0,12.0,-999,-99.99,,,-99.99,,2013-04-07 17:54:00,
2013-04-07 11:03:00,43.0,-99.9,29.70,SSW,199,8.0,12.0,-999,-99.99,,,-99.99,,2013-04-07 18:03:00,
2013-04-07 11:14:00,43.0,-99.9,29.71,SSE,164,5.0,11.0,-999,-99.99,,,-99.99,,2013-04-07 18:14:00,
2013-04-07 11:23:00,43.0,-99.9,29.71,SSE,165,5.0,9.0,-999,-99.99,,,-99.99,,2013-04-07 18:23:00,
2013-04-07 11:33:00,43.0,-99.9,29.72,South,177,6.0,13.0,-999,-99.99,,,-99.99,,2013-04-07 18:33:00,
2013-04-07 11:44:00,43.0,-99.9,29.72,South,175,7.0,12.0,-999,-99.99,,,-99.99,,2013-04-07 18:44:00,
2013-04-07 11:53:00,42.0,-99.9,29.72,SSW,192,8.0,14.0,-999,-99.99,,,-99.99,,2013-04-07 18:53:00,
2013-04-07 12:03:00,42.0,-99.9,29.72,SSE,165,11.0,15.0,-999,-99.99,,,-99.99,,2013-04-07 19:03:00,
2013-04-07 12:13:00,43.0,-99.9,29.73,SSE,168,9.0,13.0,-999,-99.99,,,-99.99,,2013-04-07 19:13:00,
2013-04-07 12:23:00,43.0,-99.9,29.73,SSE,167,8.0,14.0,-999,-99.99,,,-99.99,,2013-04-07 19:23:00,
2013-04-07 12:33:00,43.0,-99.9,29.73,SE,135,8.0,10.0,-999,-99.99,,,-99.99,,2013-04-07 19:33:00,
2013-04-07 12:43:00,43.0,-99.9,29.73,SSE,154,6.0,11.0,-999,-99.99,,,-99.99,,2013-04-07 19:43:00,
2013-04-07 12:55:00,44.0,-99.9,29.74,SE,143,5.0,10.0,-999,-99.99,,,-99.99,,2013-04-07 19:55:00,
2013-04-07 13:03:00,44.0,-99.9,29.74,SE,138,4.0,8.0,-999,-99.99,,,-99.99,,2013-04-07 20:03:00,
2013-04-07 13:13:00,44.0,-99.9,29.74,SSE,157,5.0,9.0,-999,-99.99,,,-99.99,,2013-04-07 20:13:00,
2013-04-07 13:23:00,44.0,-99.9,29.75,ESE,119,4.0,8.0,-999,-99.99,,,-99.99,,2013-04-07 20:23:00,
2013-04-07 13:33:00,44.0,-99.9,29.75,SE,137,5.0,7.0,-999,-99.99,,,-99.99,,2013-04-07 20:33:00,
2013-04-07 13:44:00,44.0,-99.9,29.75,ESE,105,4.0,6.0,-999,-99.99,,,-99.99,,2013-04-07 20:44:00,
2013-04-07 13:55:00,44.0,-99.9,29.75,ESE,116,4.0,7.0,-999,-99.99,,,-99.99,,2013-04-07 20:55:00,
2013-04-07 14:04:00,44.0,-99.9,29.75,SE,126,5.0,6.0,-999,-99.99,,,-99.99,,2013-04-07 21:04:00,
2013-04-07 14:14:00,44.0,-99.9,29.76,East,93,4.0,6.0,-999,-99.99,,,-99.99,,2013-04-07 21:14:00,
2013-04-07 14:23:00,45.0,-99.9,29.76,ESE,118,3.0,6.0,-999,-99.99,,,-99.99,,2013-04-07 21:23:00,
2013-04-07 14:35:00,44.0,-99.9,29.76,ESE,110,5.0,8.0,-999,-99.99,,,-99.99,,2013-04-07 21:35:00,
2013-04-07 14:45:00,44.0,-99.9,29.76,ESE,106,6.0,7.0,-999,-99.99,,,-99.99,,2013-04-07 21:45:00,
2013-04-07 14:55:00,45.0,-99.9,29.77,ESE,120,5.0,8.0,-999,-99.99,,,-99.99,,2013-04-07 21:55:00,
2013-04-07 15:05:00,45.0,-99.9,29.77,SE,124,7.0,9.0,-999,-99.99,,,-99.99,,2013-04-07 22:05:00,
2013-04-07 15:15:00,46.0,-99.9,29.77,SE,124,6.0,9.0,-999,-99.99,,,-99.99,,2013-04-07 22:15:00,
2013-04-07 15:24:00,47.0,-99.9,29.77,ESE,108,4.0,7.0,-999,-99.99,,,-99.99,,2013-04-07 22:24:00,
2013-04-07 15:34:00,46.0,-99.9,29.77,ESE,106,6.0,9.0,-999,-99.99,,,-99.99,,2013-04-07 22:34:00,
2013-04-07 15:44:00,47.0,-99.9,29.77,ESE,109,4.0,7.0,-999,-99.99,,,-99.99,,2013-04-07 22:44:00,
2013-04-07 15:54:00,47.0,-99.9,29.77,ESE,106,6.0,9.0,-999,-99.99,,,-99.99,,2013-04-07 22:54:00,
2013-04-07 16:04:00,47.0,-99.9,29.78,ESE,116,6.0,10.0,-999,-99.99,,,-99.99,,2013-04-07 23:04:00,
2013-04-07 16:13:00,47.0,-99.9,29.78,ESE,109,6.0,10.0,-999,-99.99,,,-99.99,,2013-04-07 23:13:00,
2013-04-07 16:23:00,47.0,-99.9,29.78,ESE,115,6.0,9.0,-999,-99.99,,,-99.99,,2013-04-07 23:23:00,
2013-04-07 16:33:00,47.0,-99.9,29.78,ESE,103,6.0,8.0,-999,-99.99,,,-99.99,,2013-04-07 23:33:00,
2013-04-07 16:43:00,47.0,-99.9,29.78,ESE,117,5.0,6.0,-999,-99.99,,,-99.99,,2013-04-07 23:43:00,
2013-04-07 16:53:00,47.0,-99.9,29.78,SE,126,7.0,8.0,-999,-99.99,,,-99.99,,2013-04-07 23:53:00,
2013-04-07 17:03:00,47.0,-99.9,29.79,SE,130,6.0,9.0,-999,-99.99,,,-99.99,,2013-04-08 00:03:00,
2013-04-07 17:13:00,47.0,-99.9,29.79,ESE,122,4.0,8.0,-999,-99.99,,,-99.99,,2013-04-08 00:13:00,
2013-04-07 17:23:00,47.0,-99.9,29.79,ESE,112,6.0,11.0,-999,-99.99,,,-99.99,,2013-04-08 00:23:00,
2013-04-07 17:33:00,47.0,-99.9,29.79,ESE,116,9.0,11.0,-999,-99.99,,,-99.99,,2013-04-08 00:33:00,
2013-04-07 17:43:00,47.0,-99.9,29.79,ESE,114,5.0,9.0,-999,-99.99,,,-99.99,,2013-04-08 00:43:00,
2013-04-07 17:53:00,47.0,-99.9,29.79,SE,129,6.0,9.0,-999,-99.99,,,-99.99,,2013-04-08 00:53:00,
2013-04-07 18:03:00,47.0,-99.9,29.80,SE,145,9.0,11.0,-999,-99.99,,,-99.99,,2013-04-08 01:03:00,
2013-04-07 18:13:00,47.0,-99.9,29.80,SE,134,5.0,9.0,-999,-99.99,,,-99.99,,2013-04-08 01:13:00,
2013-04-07 18:23:00,47.0,-99.9,29.80,SE,126,3.0,5.0,-999,-99.99,,,-99.99,,2013-04-08 01:23:00,
2013-04-07 18:34:00,47.0,-99.9,29.80,SSE,156,4.0,7.0,-999,-99.99,,,-99.99,,2013-04-08 01:34:00,
2013-04-07 18:45:00,46.0,-99.9,29.80,SSE,156,6.0,8.0,-999,-99.99,,,-99.99,,2013-04-08 01:45:00,
2013-04-07 18:55:00,46.0,-99.9,29.80,SE,143,4.0,9.0,-999,-99.99,,,-99.99,,2013-04-08 01:55:00,
2013-04-07 19:03:00,46.0,-99.9,29.80,SE,143,6.0,9.0,-999,-99.99,,,-99.99,,2013-04-08 02:03:00,
2013-04-07 19:12:00,46.0,-99.9,29.81,SE,130,5.0,9.0,-999,-99.99,,,-99.99,,2013-04-08 02:12:00,
2013-04-07 19:22:00,46.0,-99.9,29.81,ESE,116,5.0,9.0,-999,-99.99,,,-99.99,,2013-04-08 02:22:00,
2013-04-07 19:33:00,45.0,-99.9,29.81,ESE,111,5.0,9.0,-999,-99.99,,,-99.99,,2013-04-08 02:33:00,
2013-04-07 19:49:00,45.0,-99.9,29.81,ESE,120,6.0,10.0,-999,-99.99,,,-99.99,,2013-04-08 02:49:00,
2013-04-07 19:55:00,45.0,-99.9,29.82,ESE,123,7.0,10.0,-999,-99.99,,,-99.99,,2013-04-08 02:55:00,
2013-04-07 20:09:00,45.0,-99.9,29.82,SE,133,6.0,9.0,-999,-99.99,,,-99.99,,2013-04-08 03:09:00,
2013-04-07 20:26:00,45.0,-99.9,29.83,SE,140,4.0,6.0,-999,-99.99,,,-99.99,,2013-04-08 03:26:00,
2013-04-07 20:37:00,45.0,-99.9,29.83,East,92,4.0,5.0,-999,-99.99,,,-99.99,,2013-04-08 03:37:00,
2013-04-07 20:48:00,45.0,-99.9,29.84,SE,125,4.0,6.0,-999,-99.99,,,-99.99,,2013-04-08 03:48:00,
2013-04-07 20:58:00,45.0,-99.9,29.84,ESE,112,5.0,6.0,-999,-99.99,,,-99.99,,2013-04-08 03:58:00,
2013-04-07 21:03:00,45.0,-99.9,29.84,ESE,112,4.0,6.0,-999,-99.99,,,-99.99,,2013-04-08 04:03:00,
2013-04-07 21:13:00,45.0,-99.9,29.85,ESE,102,5.0,6.0,-999,-99.99,,,-99.99,,2013-04-08 04:13:00,
2013-04-07 21:23:00,45.0,-99.9,29.85,ESE,115,3.0,6.0,-999,-99.99,,,-99.99,,2013-04-08 04:23:00,
2013-04-07 21:34:00,45.0,-99.9,29.85,ESE,120,4.0,6.0,-999,-99.99,,,-99.99,,2013-04-08 04:34:00,
2013-04-07 21:45:00,44.0,-99.9,29.85,SE,130,5.0,7.0,-999,-99.99,,,-99.99,,2013-04-08 04:45:00,
2013-04-07 21:53:00,44.0,-99.9,29.86,SE,134,6.0,8.0,-999,-99.99,,,-99.99,,2013-04-08 04:53:00,
2013-04-07 22:03:00,44.0,-99.9,29.86,SSE,153,5.0,6.0,-999,-99.99,,,-99.99,,2013-04-08 05:03:00,
2013-04-07 22:12:00,44.0,-99.9,29.86,SE,140,6.0,7.0,-999,-99.99,,,-99.99,,2013-04-08 05:12:00,
2013-04-07 22:22:00,44.0,-99.9,29.86,SE,140,6.0,7.0,-999,-99.99,,,-99.99,,2013-04-08 05:22:00,
2013-04-07 22:32:00,44.0,-99.9,29.87,SE,135,5.0,6.0,-999,-99.99,,,-99.99,,2013-04-08 05:32:00,
2013-04-07 22:42:00,44.0,-99.9,29.88,SE,138,5.0,8.0,-999,-99.99,,,-99.99,,2013-04-08 05:42:00,
2013-04-07 22:53:00,44.0,-99.9,29.88,ESE,111,7.0,9.0,-999,-99.99,,,-99.99,,2013-04-08 05:53:00,
2013-04-07 23:02:00,44.0,-99.9,29.88,ESE,109,6.0,9.0,-999,-99.99,,,-99.99,,2013-04-08 06:02:00,
2013-04-07 23:12:00,44.0,-99.9,29.88,ESE,119,4.0,8.0,-999,-99.99,,,-99.99,,2013-04-08 06:12:00,
2013-04-07 23:22:00,43.0,-99.9,29.89,ESE,119,5.0,8.0,-999,-99.99,,,-99.99,,2013-04-08 06:22:00,
2013-04-07 23:32:00,43.0,-99.9,29.89,ESE,112,5.0,7.0,-999,-99.99,,,-99.99,,2013-04-08 06:32:00,
2013-04-07 23:43:00,43.0,-99.9,29.90,ESE,121,4.0,7.0,-999,-99.99,,,-99.99,,2013-04-08 06:43:00,
2013-04-07 23:52:00,43.0,-99.9,29.90,SE,130,6.0,8.0,-999,-99.99,,,-99.99,,2013-04-08 06:52:00,